STARLINK-32181, 60349

Orbit data source: Space-Track

STARLINK-32181, 60349 is a payload satellite owned by SpaceX/Seattle (US) in LEO that was launched on Fri, 02 Aug 2024 UTC via an FALCON 9 launch vehicle from the Air Force Eastern Test Range (AFETR). Payload-class satellites include a variety of spacecraft equipped with specific instruments for various scientific and technological missions. These include communications satellites like Starlink; space stations such as the ISS; scientific satellites like the Hubble; Earth observation satellites from companies like Planet Labs, Umbra, and HawkEye 360; GPS; miniature CubeSats for education and research; and military/defense satellites.

Loading next visibility...
Identifier
60349, 2024-136W
Orbit
LEO
Country
Flag of USUS
Related business
Manufacturer
SpaceX/Seattle
Mission
Operational Commercial Communications
Bus & Motor
STARLINK V2M, Unknown motor
Mass
730 kg wet, ~700 kg dry
Launch date (UTC)
2024-08-02 (2 years ago)
Launch vehicle
FALCON 9
Launch site
Air Force Eastern Test Range (AFETR)
Object type
Payload
Rocket body
Debris
Shape & HBR
Box + 2 Pan, 17.7 m
Radar Cross Section
33.884 m², Large (>1 m²)

Expand to show TLE details & history
Last TLE update: 23 hours ago

TLE from 23 hours ago
0 STARLINK-32181
1 60349U 24136W   26124.40897388  .00004994  00000-0  15901-3 0  9995
2 60349  53.1608 176.2678 0001100  82.5725 277.5403 15.34363249 98202
Epoch: 2026-05-04T09:48Z
TLE epoch observation values (Epoch: 2026-05-04T09:48:55.343Z)
Latitude
0.00003°
Longitude
166.73863°
Altitude
463.615 km
Speed
7.636 km/s
True Right ascension
11h 45m 04s
True Declination
0° 00' 00"
Sunlit
Object was in full shadow at epoch
Visualization orbit readout
Latitude
Unknown
Longitude
Unknown
Altitude
Unknown
Speed
Unknown
Apparent Right ascension
Unknown
Apparent Declination
Unknown
Sunlit
N/A
Visualization observer readout
Local Sidereal Time
17:02:55
Azimuth
Unknown
Elevation
Unknown
Doppler factor
Unknown
Orbital elements
Apogee altitude
463.822 km
Perigee altitude
462.317 km
Semi-major axis
6,841.206 km
Eccentricity
0.00011
Inclination
53.1608°
RAAN
176.2678°
Arg. of periapsis
82.5725°
True anomaly
277.5278°
Mean anomaly
277.5403°
Eccentric anomaly
277.53405°
Mean motion
3.8357 °/min
Orbital period
93.86 mins
BSTAR
0.00015901
Loading maneuver chart data...
Computing Atmospheric mass density...
Loading historical data...
Loading historical data...
Loading historical data...
Loading historical data...
Loading historical data...
Loading historical data...
Loading historical data...

Documentation

Showing up to 5 results
|